Location: ??????????
(41.2581°N, 22.8006°E)
Time: 02:16:31
(UTC+00:00)

Cosmos 1844 Rocket - Pass Details

Date: 13 December 2025
Orbit: 822 x 845 km, 71.0° (Epoch: 17 January)

Event Time Altitude Azimuth Distance (km) Brightness Sun altitude
Rises 17:40:59 0° 338° (NNW) 3,404 6.0 -29.3°
Reaches altitude 10° 17:43:27 10° 341° (NNW) 2,468 5.2 -29.8°
Enters shadow 17:45:47 25° 346° (NNW) 1,632 4.2 -30.2°
